Location: Newark
(49.9819°N, 3.0344°E)
Time: 20:48:34
(UTC+00:00)

ISS - Pass Details

Date: 26 January 2020
Orbit: 415 x 423 km, 51.6° (Epoch: 28 February)

Event Time Altitude Azimuth Distance (km) Brightness Sun altitude
Rises 17:19:31 0° 234° (SW) 2,374 1.8 -7.9°
Reaches altitude 10° 17:21:39 10° 229° (SW) 1,510 0.3 -8.2°
Maximum altitude 17:24:57 49° 153° (SSE) 553 -3.2 -8.7°
Enters shadow 17:27:49 13° 79° (E) 1,346 -1.9 -9.2°
